RYR7208 EDDK-LEPA

Flight info

Callsign RYR7208
Flight time N/A
Altitude 35000
Route NVO2R/31R NVO Y868 NAVAK Z283 SOPOK DCT ROUSY DCT GTQ/N0455F370 DCT POGOL DCT LASAT DCT MOROK DCT GILIR DCT GEVEA DCT INCUS DCT BALSI DCT RETNO DCT TUPOX DCT MTG DCT DIVKO DCT VATIR DCT PIVUS DCT BODEQ DCT VERSO L129 LUNIK
Aircraft A320/M-SDE3FGHIRWY/LB1

Departure

Time 2026-05-06 15:34
Airport Cologne Bonn Airport (EDDK)

Arrival

Time N/A
Airport Palma de Mallorca Airport (LEPA)
Time Latitude Longitude Altitude Speed Heading
2026-05-06 15:03 50.87769 7.12401 232 ft 0 kts 288°
2026-05-06 15:21 50.87769 7.12402 232 ft 1 kts 288°
2026-05-06 15:21 50.87761 7.12439 234 ft 4 kts 288°
2026-05-06 15:21 50.87753 7.12479 235 ft 4 kts 295°
2026-05-06 15:21 50.87739 7.12515 234 ft 4 kts 322°
2026-05-06 15:22 50.87720 7.12526 232 ft 1 kts 18°
2026-05-06 15:22 50.87719 7.12526 232 ft 0 kts 18°
2026-05-06 15:26 50.87733 7.12534 207 ft 4 kts 21°
2026-05-06 15:26 50.87760 7.12588 232 ft 4 kts 90°
2026-05-06 15:26 50.87763 7.12621 232 ft 5 kts 71°
2026-05-06 15:26 50.87768 7.12673 232 ft 3 kts 94°
2026-05-06 15:27 50.87750 7.12724 233 ft 9 kts 127°
2026-05-06 15:27 50.87694 7.12808 232 ft 11 kts 138°
2026-05-06 15:27 50.87650 7.12871 232 ft 8 kts 138°
2026-05-06 15:27 50.87593 7.12954 232 ft 14 kts 137°
2026-05-06 15:28 50.87510 7.13073 232 ft 17 kts 137°
2026-05-06 15:28 50.87419 7.13205 232 ft 18 kts 137°
2026-05-06 15:28 50.87341 7.13318 232 ft 15 kts 137°
2026-05-06 15:28 50.87258 7.13439 234 ft 17 kts 137°
2026-05-06 15:29 50.87164 7.13575 237 ft 18 kts 137°
2026-05-06 15:29 50.87073 7.13705 241 ft 17 kts 137°
2026-05-06 15:29 50.86991 7.13824 244 ft 15 kts 137°
2026-05-06 15:29 50.86922 7.13923 250 ft 12 kts 138°
2026-05-06 15:30 50.86851 7.14026 255 ft 16 kts 137°
2026-05-06 15:30 50.86767 7.14126 255 ft 13 kts 167°
2026-05-06 15:30 50.86699 7.14186 258 ft 13 kts 137°
2026-05-06 15:30 50.86623 7.14297 261 ft 17 kts 137°
2026-05-06 15:31 50.86523 7.14443 264 ft 20 kts 138°
2026-05-06 15:31 50.86427 7.14581 270 ft 18 kts 137°
2026-05-06 15:31 50.86343 7.14703 275 ft 16 kts 137°
2026-05-06 15:32 50.86172 7.14950 285 ft 18 kts 137°
2026-05-06 15:32 50.86083 7.15080 288 ft 15 kts 137°
2026-05-06 15:32 50.86044 7.15189 291 ft 11 kts 97°
2026-05-06 15:32 50.86067 7.15307 294 ft 13 kts 51°
2026-05-06 15:33 50.86154 7.15357 290 ft 15 kts 356°
2026-05-06 15:33 50.86267 7.15322 288 ft 17 kts 348°
2026-05-06 15:33 50.86384 7.15305 288 ft 17 kts 340°
2026-05-06 15:33 50.86458 7.15216 282 ft 28 kts 319°
2026-05-06 15:34 50.86781 7.14742 267 ft 97 kts 318°
2026-05-06 15:34 50.87424 7.13814 245 ft 152 kts 317°
2026-05-06 15:34 50.88217 7.12677 901 ft 152 kts 318°
2026-05-06 15:34 50.89013 7.11555 1812 ft 153 kts 320°
2026-05-06 15:35 50.89823 7.10399 2507 ft 165 kts 319°
2026-05-06 15:35 50.90611 7.08915 2898 ft 189 kts 301°
2026-05-06 15:35 50.91063 7.06852 3432 ft 207 kts 280°
2026-05-06 15:35 50.90989 7.04530 4188 ft 217 kts 257°
2026-05-06 15:36 50.90506 7.02174 4781 ft 232 kts 253°
2026-05-06 15:36 50.89963 6.99615 5191 ft 256 kts 253°
2026-05-06 15:36 50.89383 6.96887 5866 ft 265 kts 253°
2026-05-06 15:36 50.88789 6.94099 6688 ft 268 kts 253°
2026-05-06 15:37 50.88189 6.91287 7518 ft 270 kts 252°
2026-05-06 15:37 50.87585 6.88462 8362 ft 272 kts 252°
2026-05-06 15:37 50.86974 6.85607 9180 ft 275 kts 252°
2026-05-06 15:37 50.86358 6.82724 9970 ft 278 kts 251°
2026-05-06 15:38 50.85724 6.79762 10395 ft 295 kts 251°
2026-05-06 15:38 50.85036 6.76556 10591 ft 318 kts 251°
2026-05-06 15:38 50.84308 6.73171 11047 ft 330 kts 251°
2026-05-06 15:38 50.83562 6.69710 11708 ft 334 kts 251°
2026-05-06 15:39 50.82811 6.66206 12433 ft 337 kts 252°
2026-05-06 15:39 50.82329 6.62572 13148 ft 340 kts 265°
2026-05-06 15:39 50.82326 6.58818 13857 ft 343 kts 271°
2026-05-06 15:39 50.82385 6.55025 14471 ft 347 kts 271°
2026-05-06 15:40 50.82439 6.51193 15074 ft 351 kts 271°
2026-05-06 15:40 50.82486 6.47313 15692 ft 355 kts 271°
2026-05-06 15:40 50.82530 6.43366 16285 ft 359 kts 271°
2026-05-06 15:40 50.82573 6.39399 16857 ft 363 kts 271°
2026-05-06 15:41 50.82617 6.35384 17430 ft 367 kts 271°
2026-05-06 15:41 50.82663 6.31339 17998 ft 371 kts 271°
2026-05-06 15:41 50.82709 6.27228 18509 ft 375 kts 271°
2026-05-06 15:41 50.82755 6.23034 19019 ft 378 kts 271°
2026-05-06 15:42 50.82799 6.18860 19528 ft 381 kts 270°
2026-05-06 15:42 50.82841 6.14661 20037 ft 385 kts 270°
2026-05-06 15:42 50.82882 6.10404 20563 ft 387 kts 270°
2026-05-06 15:42 50.82919 6.06128 21067 ft 391 kts 270°
2026-05-06 15:43 50.82955 6.01811 21567 ft 394 kts 270°
2026-05-06 15:43 50.82707 5.97503 22046 ft 397 kts 256°
2026-05-06 15:43 50.81698 5.93427 22529 ft 400 kts 239°
2026-05-06 15:43 50.79986 5.89981 22967 ft 404 kts 223°
2026-05-06 15:44 50.77668 5.87419 23419 ft 407 kts 208°
2026-05-06 15:44 50.75155 5.85348 23794 ft 410 kts 208°
2026-05-06 15:44 50.72641 5.83206 24194 ft 412 kts 208°
2026-05-06 15:44 50.70134 5.81024 24589 ft 413 kts 209°
2026-05-06 15:45 50.67602 5.78808 24978 ft 415 kts 209°
2026-05-06 15:45 50.65079 5.76609 25334 ft 417 kts 208°
2026-05-06 15:45 50.62511 5.74432 25691 ft 419 kts 205°
2026-05-06 15:45 50.59788 5.72809 26048 ft 420 kts 195°
2026-05-06 15:46 50.56921 5.71959 26402 ft 422 kts 185°
2026-05-06 15:46 50.53977 5.71920 26757 ft 423 kts 175°
2026-05-06 15:46 50.51047 5.72471 27106 ft 424 kts 173°
2026-05-06 15:46 50.48117 5.73049 27454 ft 425 kts 173°
2026-05-06 15:47 50.45184 5.73615 27797 ft 427 kts 173°
2026-05-06 15:47 50.42223 5.74177 28131 ft 428 kts 173°
2026-05-06 15:47 50.39269 5.74734 28436 ft 430 kts 173°
2026-05-06 15:47 50.36281 5.75294 28740 ft 431 kts 173°
2026-05-06 15:48 50.33306 5.75857 29036 ft 433 kts 173°
2026-05-06 15:48 50.30305 5.76427 29329 ft 434 kts 173°
2026-05-06 15:48 50.27303 5.76996 29601 ft 436 kts 173°
2026-05-06 15:48 50.24269 5.77828 29864 ft 437 kts 166°
2026-05-06 15:49 50.21337 5.79129 30080 ft 439 kts 165°
2026-05-06 15:49 50.18437 5.80432 30276 ft 441 kts 165°
2026-05-06 15:49 50.15439 5.81774 30508 ft 441 kts 165°
2026-05-06 15:49 50.12490 5.83089 30795 ft 440 kts 165°
2026-05-06 15:50 50.09545 5.84396 31066 ft 440 kts 165°
2026-05-06 15:50 50.06605 5.85695 31337 ft 439 kts 165°
2026-05-06 15:50 50.03664 5.86992 31612 ft 439 kts 165°
2026-05-06 15:50 50.00726 5.88289 31889 ft 439 kts 165°
2026-05-06 15:51 49.97802 5.89579 32173 ft 438 kts 165°
2026-05-06 15:51 49.94867 5.90875 32452 ft 438 kts 165°
2026-05-06 15:51 49.91942 5.92164 32732 ft 437 kts 165°
2026-05-06 15:51 49.89013 5.93456 33013 ft 436 kts 165°
2026-05-06 15:52 49.86099 5.94741 33292 ft 436 kts 165°
2026-05-06 15:52 49.83190 5.96021 33565 ft 435 kts 165°
2026-05-06 15:52 49.80271 5.97304 33843 ft 435 kts 166°
2026-05-06 15:52 49.77368 5.98576 34080 ft 434 kts 166°
2026-05-06 15:53 49.74451 5.99845 34292 ft 434 kts 166°
2026-05-06 15:53 49.71547 6.01106 34506 ft 434 kts 166°
2026-05-06 15:53 49.68640 6.02368 34717 ft 434 kts 166°
2026-05-06 15:53 49.65734 6.03630 34819 ft 434 kts 166°
2026-05-06 15:54 49.59943 6.06151 34836 ft 432 kts 166°
2026-05-06 15:54 49.54169 6.08663 34838 ft 431 kts 166°
2026-05-06 15:55 49.48422 6.11553 34841 ft 433 kts 156°
2026-05-06 15:55 49.43425 6.16717 34839 ft 436 kts 143°
2026-05-06 15:56 49.38703 6.22581 34845 ft 437 kts 143°
2026-05-06 15:56 49.33975 6.28427 34843 ft 437 kts 142°
2026-05-06 15:57 49.31886 6.31798 34839 ft 440 kts 127°
2026-05-06 15:57 49.30237 6.35781 34833 ft 442 kts 123°
2026-05-06 15:57 49.26534 6.43132 34830 ft 434 kts 144°
2026-05-06 15:58 49.21558 6.48364 34834 ft 433 kts 148°
2026-05-06 15:58 49.16540 6.53455 34835 ft 433 kts 148°
2026-05-06 15:59 49.11521 6.58537 34835 ft 433 kts 148°
2026-05-06 15:59 49.06501 6.63637 34839 ft 434 kts 148°
2026-05-06 16:00 49.01406 6.68568 34831 ft 432 kts 156°
2026-05-06 16:00 48.95685 6.71218 34830 ft 427 kts 175°
2026-05-06 16:01 48.89758 6.71262 34827 ft 426 kts 182°
2026-05-06 16:01 48.83832 6.71026 34829 ft 427 kts 182°
2026-05-06 16:02 48.77897 6.70810 34825 ft 427 kts 184°
2026-05-06 16:02 48.71971 6.70577 34834 ft 426 kts 182°
2026-05-06 16:03 48.66023 6.70345 34838 ft 427 kts 182°
2026-05-06 16:03 48.60045 6.70113 34839 ft 427 kts 182°
2026-05-06 16:04 48.55075 6.69916 34840 ft 427 kts 182°
2026-05-06 16:04 48.49141 6.69692 34852 ft 427 kts 182°
2026-05-06 16:05 48.43199 6.69463 34853 ft 427 kts 182°
2026-05-06 16:05 48.37269 6.69234 34864 ft 427 kts 182°
2026-05-06 16:06 48.31334 6.69002 34863 ft 426 kts 182°
2026-05-06 16:06 48.25404 6.68770 34868 ft 426 kts 182°
2026-05-06 16:07 48.19497 6.68551 34863 ft 426 kts 182°
2026-05-06 16:07 48.13571 6.68333 34870 ft 425 kts 182°
2026-05-06 16:08 48.07652 6.68105 34870 ft 425 kts 182°
2026-05-06 16:08 48.01732 6.67875 34872 ft 425 kts 182°
2026-05-06 16:09 47.95779 6.67644 34875 ft 425 kts 182°
2026-05-06 16:09 47.89863 6.67421 34882 ft 425 kts 182°
2026-05-06 16:10 47.83951 6.67196 34869 ft 425 kts 183°
2026-05-06 16:10 47.78037 6.66977 34883 ft 425 kts 182°
2026-05-06 16:11 47.72131 6.66759 34878 ft 425 kts 183°
2026-05-06 16:11 47.66226 6.66538 34881 ft 424 kts 183°
2026-05-06 16:12 47.60336 6.66314 34882 ft 424 kts 183°
2026-05-06 16:12 47.54427 6.66094 34884 ft 424 kts 183°
2026-05-06 16:13 47.48519 6.65869 35133 ft 426 kts 183°
2026-05-06 16:13 47.45557 6.65753 35331 ft 426 kts 184°
2026-05-06 16:13 47.42628 6.65235 35507 ft 424 kts 194°
2026-05-06 16:14 47.39823 6.63990 35701 ft 422 kts 203°
2026-05-06 16:14 47.37188 6.62045 35877 ft 421 kts 212°
2026-05-06 16:14 47.34841 6.59499 36063 ft 422 kts 220°
2026-05-06 16:14 47.32582 6.56629 36245 ft 422 kts 220°
2026-05-06 16:15 47.30358 6.53828 36418 ft 422 kts 220°
2026-05-06 16:15 47.28118 6.51022 36575 ft 422 kts 220°
2026-05-06 16:15 47.25871 6.48223 36742 ft 422 kts 220°
2026-05-06 16:15 47.23634 6.45436 36881 ft 422 kts 220°
2026-05-06 16:16 47.19150 6.39852 36899 ft 422 kts 220°
2026-05-06 16:16 47.14675 6.34283 36903 ft 422 kts 220°
2026-05-06 16:17 47.10189 6.28712 36898 ft 422 kts 219°
2026-05-06 16:17 47.05114 6.24464 36905 ft 423 kts 199°
2026-05-06 16:18 46.99325 6.22970 36897 ft 425 kts 187°
2026-05-06 16:18 46.93433 6.22195 36895 ft 425 kts 187°
2026-05-06 16:19 46.87532 6.21402 36900 ft 425 kts 187°
2026-05-06 16:19 46.81635 6.20615 36902 ft 426 kts 187°
2026-05-06 16:20 46.75745 6.19834 36906 ft 425 kts 187°
2026-05-06 16:20 46.69803 6.19046 36907 ft 425 kts 187°
2026-05-06 16:21 46.63920 6.18266 36911 ft 425 kts 187°
2026-05-06 16:21 46.58021 6.17493 36913 ft 425 kts 187°
2026-05-06 16:22 46.52133 6.16723 36915 ft 425 kts 187°
2026-05-06 16:22 46.46258 6.15952 36914 ft 424 kts 187°
2026-05-06 16:23 46.40383 6.15173 36915 ft 424 kts 188°
2026-05-06 16:23 46.34499 6.14397 36913 ft 424 kts 188°
2026-05-06 16:24 46.28746 6.13651 36907 ft 424 kts 188°
2026-05-06 16:24 46.22881 6.12809 36916 ft 423 kts 190°
2026-05-06 16:25 46.17086 6.11534 36909 ft 421 kts 192°
2026-05-06 16:25 46.11301 6.10114 36918 ft 421 kts 192°
2026-05-06 16:26 46.05521 6.08776 36919 ft 421 kts 192°
2026-05-06 16:26 45.99726 6.07500 36913 ft 421 kts 191°
2026-05-06 16:27 45.93946 6.06239 36911 ft 420 kts 192°
2026-05-06 16:27 45.88164 6.04972 36912 ft 420 kts 192°
2026-05-06 16:28 45.82360 6.03700 36910 ft 419 kts 192°
2026-05-06 16:28 45.76595 6.02427 36915 ft 419 kts 192°
2026-05-06 16:29 45.70830 6.01141 36912 ft 418 kts 192°
2026-05-06 16:29 45.65089 5.99868 36906 ft 418 kts 192°
2026-05-06 16:30 45.60311 5.98814 36914 ft 418 kts 192°
2026-05-06 16:30 45.53592 5.97353 36912 ft 417 kts 192°
2026-05-06 16:31 45.47859 5.96100 36912 ft 417 kts 192°
2026-05-06 16:31 45.42179 5.94527 36911 ft 415 kts 196°
2026-05-06 16:32 45.36563 5.92669 36917 ft 415 kts 197°
2026-05-06 16:32 45.30949 5.90815 36924 ft 414 kts 196°
2026-05-06 16:33 45.25322 5.89050 36922 ft 414 kts 195°
2026-05-06 16:34 45.16877 5.86457 36926 ft 413 kts 195°
2026-05-06 16:34 45.11226 5.84716 36925 ft 413 kts 196°
2026-05-06 16:35 45.05620 5.82982 36922 ft 413 kts 196°
2026-05-06 16:35 45.00009 5.81244 36924 ft 412 kts 196°
2026-05-06 16:36 44.95356 5.79808 36921 ft 412 kts 196°
2026-05-06 16:36 44.89766 5.78091 36919 ft 411 kts 196°
2026-05-06 16:37 44.84184 5.76392 36921 ft 410 kts 196°
2026-05-06 16:37 44.78604 5.74683 36917 ft 409 kts 196°
2026-05-06 16:38 44.73052 5.72979 36915 ft 409 kts 196°
2026-05-06 16:38 44.67490 5.71281 36909 ft 408 kts 196°
2026-05-06 16:39 44.61912 5.69581 36905 ft 407 kts 196°
2026-05-06 16:39 44.56371 5.67901 36903 ft 407 kts 196°
2026-05-06 16:40 44.50843 5.66228 36904 ft 407 kts 196°
2026-05-06 16:40 44.45308 5.64551 36895 ft 406 kts 196°
2026-05-06 16:41 44.39778 5.62890 36893 ft 406 kts 196°
2026-05-06 16:41 44.34469 5.60422 36887 ft 401 kts 205°
2026-05-06 16:42 44.29266 5.57562 36885 ft 402 kts 205°
2026-05-06 16:42 44.24065 5.54712 36882 ft 401 kts 205°
2026-05-06 16:43 44.18866 5.51873 36882 ft 401 kts 205°
2026-05-06 16:43 44.13681 5.49046 36895 ft 401 kts 205°
2026-05-06 16:44 44.08444 5.46196 36897 ft 401 kts 205°
2026-05-06 16:44 44.03246 5.43371 36875 ft 401 kts 205°
2026-05-06 16:45 43.98054 5.40561 36878 ft 401 kts 205°
2026-05-06 16:45 43.92869 5.37760 36890 ft 401 kts 205°
2026-05-06 16:46 43.87670 5.34940 36887 ft 401 kts 205°
2026-05-06 16:46 43.83233 5.32544 36896 ft 401 kts 205°
2026-05-06 16:47 43.78039 5.29744 36910 ft 401 kts 205°
2026-05-06 16:47 43.72851 5.26961 36903 ft 400 kts 205°
2026-05-06 16:48 43.67650 5.24173 36916 ft 400 kts 205°
2026-05-06 16:48 43.62460 5.21391 36914 ft 400 kts 205°
2026-05-06 16:49 43.57264 5.18606 36918 ft 400 kts 205°
2026-05-06 16:49 43.52039 5.15818 36923 ft 400 kts 205°
2026-05-06 16:50 43.46854 5.13057 36923 ft 400 kts 205°
2026-05-06 16:50 43.41662 5.10300 36926 ft 399 kts 205°
2026-05-06 16:51 43.36746 5.06923 36927 ft 393 kts 217°
2026-05-06 16:51 43.32238 5.02651 36924 ft 393 kts 217°
2026-05-06 16:52 43.27737 4.98418 36926 ft 393 kts 217°
2026-05-06 16:52 43.23239 4.94181 36926 ft 392 kts 217°
2026-05-06 16:53 43.18727 4.89945 36928 ft 392 kts 217°
2026-05-06 16:53 43.14225 4.85728 36935 ft 392 kts 217°
2026-05-06 16:54 43.09725 4.81525 36935 ft 391 kts 217°
2026-05-06 16:54 43.05203 4.77381 36940 ft 392 kts 212°
2026-05-06 16:55 43.00438 4.73749 36937 ft 392 kts 212°
2026-05-06 16:55 42.95670 4.70141 36936 ft 391 kts 212°
2026-05-06 16:56 42.90910 4.66535 36938 ft 391 kts 212°
2026-05-06 16:56 42.86123 4.62912 36937 ft 391 kts 212°
2026-05-06 16:57 42.81368 4.59326 36941 ft 390 kts 212°
2026-05-06 16:57 42.76629 4.55758 36938 ft 389 kts 212°
2026-05-06 16:58 42.71882 4.52194 36953 ft 389 kts 212°
2026-05-06 16:58 42.67154 4.48645 36947 ft 389 kts 212°
2026-05-06 16:59 42.62414 4.45094 36942 ft 388 kts 212°
2026-05-06 16:59 42.57691 4.41571 36944 ft 387 kts 212°
2026-05-06 17:00 42.52971 4.38045 36944 ft 387 kts 212°
2026-05-06 17:00 42.48249 4.34524 36953 ft 387 kts 212°
2026-05-06 17:01 42.43537 4.31030 36948 ft 386 kts 212°
2026-05-06 17:01 42.38824 4.27531 36954 ft 386 kts 212°
2026-05-06 17:02 42.34131 4.24038 36955 ft 385 kts 212°
2026-05-06 17:02 42.29438 4.20557 36939 ft 384 kts 212°
2026-05-06 17:03 42.24759 4.17104 36946 ft 383 kts 212°
2026-05-06 17:03 42.20083 4.13663 36946 ft 383 kts 212°
2026-05-06 17:04 42.15395 4.10220 36947 ft 383 kts 212°
2026-05-06 17:04 42.10687 4.06760 36946 ft 384 kts 212°
2026-05-06 17:05 42.05999 4.03319 36942 ft 384 kts 212°
2026-05-06 17:05 42.01315 3.99890 36940 ft 384 kts 212°
2026-05-06 17:06 41.96621 3.96455 36941 ft 384 kts 213°
2026-05-06 17:06 41.91785 3.93370 36947 ft 391 kts 202°
2026-05-06 17:07 41.86394 3.91955 36942 ft 396 kts 196°
2026-05-06 17:07 41.80962 3.90713 36938 ft 396 kts 196°
2026-05-06 17:08 41.76412 3.89668 36935 ft 396 kts 196°
2026-05-06 17:08 41.70988 3.88417 36941 ft 396 kts 196°
2026-05-06 17:09 41.65564 3.87166 36937 ft 396 kts 196°
2026-05-06 17:09 41.60123 3.85921 36938 ft 396 kts 196°
2026-05-06 17:10 41.54689 3.84674 36940 ft 397 kts 196°
2026-05-06 17:10 41.49247 3.83430 36934 ft 397 kts 196°
2026-05-06 17:11 41.43798 3.82187 36934 ft 397 kts 196°
2026-05-06 17:11 41.38356 3.80939 36938 ft 397 kts 196°
2026-05-06 17:12 41.32902 3.79689 36935 ft 397 kts 197°
2026-05-06 17:12 41.27448 3.78446 36938 ft 397 kts 196°
2026-05-06 17:13 41.22001 3.77208 36940 ft 398 kts 196°